METEOR-M2 4

Last updated on Fri Sep 11 2026 00:02:39 GMT+0000 (Coordinated Universal Time)

1 59051U 24039A 26253.57835024 -.00000009 00000+0 15625-4 0 9992 2 59051 98.7106 211.8379 0005973 286.7411 73.3111 14.22437066131407
UTC large
Height (km)
Speed (km/s)
/
Latitude / Longitude
Inclination (degrees)
Orbital Period (minutes)
Azimuth
Elevation
Range (km)
Doppler Factor

Next 0 passes for location: London (51.5072 / 0.1276)

No passes found over London.
METEOR-M2 4